M I D A S
Marine Information and Data Acquisition System
Tripno 1544 of the Zeeleeuw from 2008-08-26 08:33:58 to 2008-08-26 13:35:23
Back to CruiseResearch ActivitiesStationsMapUnderway DataData graphs

EquipmentUnitsComments
TimeDGPSUTC
LatitudeDGPSDM.mWGS84
LongitudeDGPSDM.mWGS84
SpeedMeteo Stationm/sRelative wind speed
DirectionMeteo StationdegRelative wind direction
TemperatureMeteo Stationdeg CelciusAir temperature
PressureMeteo StationPaAtmospheric pressure
HumidityMeteo Station%Relative humidity
Missing or incorrect values are displayed as -999
Metereological data collected by the RV Zeeleeuw from 2008-08-26 08:36:44 to 2008-08-26 13:38:50
                                                                                    Next 1000 lines
Time Latitude Longitude Speed Direction Temperature Pressure Humidity
2008-08-26 08:36:54 51°13.622 2°56.044 -999 -999 -999 -999 -999
2008-08-26 08:36:59 51°13.623 2°56.042 -999 -999 -999 -999 -999
2008-08-26 08:37:04 51°13.624 2°56.038 -999 -999 -999 -999 -999
2008-08-26 08:37:09 51°13.625 2°56.034 -999 -999 -999 -999 -999
2008-08-26 08:37:13 51°13.626 2°56.031 -999 -999 -999 -999 -999
2008-08-26 08:37:19 51°13.628 2°56.025 -999 -999 -999 -999 -999
2008-08-26 08:37:24 51°13.63 2°56.02 -999 -999 -999 -999 -999
2008-08-26 08:37:29 51°13.632 2°56.014 -999 -999 -999 -999 -999
2008-08-26 08:37:34 51°13.633 2°56.008 -999 -999 -999 -999 -999
2008-08-26 08:37:39 51°13.635 2°56.002 -999 -999 -999 -999 -999
2008-08-26 08:37:44 51°13.636 2°55.996 -999 -999 -999 -999 -999
2008-08-26 08:37:49 51°13.638 2°55.989 -999 -999 -999 -999 -999
2008-08-26 08:37:54 51°13.64 2°55.982 -999 -999 -999 -999 -999
2008-08-26 08:37:59 51°13.642 2°55.975 -999 -999 -999 -999 -999
2008-08-26 08:38:04 51°13.644 2°55.967 -999 -999 -999 -999 -999
2008-08-26 08:38:09 51°13.645 2°55.959 -999 -999 -999 -999 -999
2008-08-26 08:38:14 51°13.648 2°55.95 -999 -999 -999 -999 -999
2008-08-26 08:38:19 51°13.65 2°55.941 -999 -999 -999 -999 -999
2008-08-26 08:38:24 51°13.652 2°55.933 -999 -999 -999 -999 -999
2008-08-26 08:38:29 51°13.655 2°55.924 -999 -999 -999 -999 -999
2008-08-26 08:38:34 51°13.657 2°55.915 -999 -999 -999 -999 -999
2008-08-26 08:38:39 51°13.659 2°55.906 -999 -999 -999 -999 -999
2008-08-26 08:38:44 51°13.662 2°55.896 -999 -999 -999 -999 -999
2008-08-26 08:38:49 51°13.665 2°55.887 -999 -999 -999 -999 -999
2008-08-26 08:38:54 51°13.667 2°55.878 -999 -999 -999 -999 -999
2008-08-26 08:38:59 51°13.67 2°55.869 -999 -999 -999 -999 -999
2008-08-26 08:39:04 51°13.672 2°55.861 -999 -999 -999 -999 -999
2008-08-26 08:39:09 51°13.674 2°55.853 -999 -999 -999 -999 -999
2008-08-26 08:39:14 51°13.676 2°55.844 -999 -999 -999 -999 -999
2008-08-26 08:39:19 51°13.678 2°55.837 -999 -999 -999 -999 -999
2008-08-26 08:39:24 51°13.679 2°55.829 -999 17 -999 -999 -999
2008-08-26 08:39:29 51°13.681 2°55.821 6.2 45 -999 -999 -999
2008-08-26 08:39:34 51°13.683 2°55.814 7.9 42 -999 -999 -999
2008-08-26 08:39:39 51°13.684 2°55.807 7.7 44 -999 -999 -999
2008-08-26 08:39:44 51°13.685 2°55.8 6.4 41 -999 -999 -999
2008-08-26 08:39:49 51°13.686 2°55.793 7.3 44 17.4 -999 63
2008-08-26 08:39:54 51°13.687 2°55.787 5.5 39 17.4 -999 63
2008-08-26 08:39:59 51°13.688 2°55.781 7.4 35 17.3 -999 73
2008-08-26 08:40:04 51°13.688 2°55.775 5.3 42 17.3 -999 73
2008-08-26 08:40:09 51°13.689 2°55.769 5.8 43 17.3 102090 73
2008-08-26 08:40:13 51°13.689 2°55.764 7.4 43 17.3 102090 73
2008-08-26 08:40:18 51°13.689 2°55.759 5.4 38 17.3 102090 73
2008-08-26 08:40:23 51°13.69 2°55.754 6.3 77 17.3 102090 73
2008-08-26 08:40:28 51°13.69 2°55.75 4 33 17.3 102090 73
2008-08-26 08:40:33 51°13.69 2°55.746 5.1 81 17.3 102090 73
2008-08-26 08:40:38 51°13.69 2°55.743 6.7 39 17.3 102090 73
2008-08-26 08:40:42 51°13.69 2°55.74 4.6 41 17.3 102090 73
2008-08-26 08:40:47 51°13.691 2°55.738 4.6 37 17.3 102090 73
2008-08-26 08:40:52 51°13.691 2°55.736 4.7 79 17.3 102100 73
2008-08-26 08:40:57 51°13.691 2°55.734 2.9 39 17.3 102100 73
2008-08-26 08:41:02 51°13.691 2°55.733 4.8 38 17.3 102100 73
2008-08-26 08:41:07 51°13.691 2°55.731 3.2 32 17.3 102100 73
2008-08-26 08:41:11 51°13.692 2°55.731 3.4 79 17.3 102100 73
2008-08-26 08:41:17 51°13.692 2°55.73 3.2 40 17.3 102100 74
2008-08-26 08:41:21 51°13.692 2°55.729 4.2 40 17.3 102100 74
2008-08-26 08:41:26 51°13.693 2°55.729 3.4 39 17.3 102100 74
2008-08-26 08:41:31 51°13.693 2°55.729 4.1 83 17.3 102100 74
2008-08-26 08:41:36 51°13.694 2°55.729 3.7 38 17.4 102100 74
2008-08-26 08:41:41 51°13.695 2°55.73 3.5 77 17.4 102100 74
2008-08-26 08:41:45 51°13.696 2°55.731 2.2 35 17.4 102100 74
2008-08-26 08:41:50 51°13.698 2°55.732 1.8 79 17.4 102100 74
2008-08-26 08:41:55 51°13.7 2°55.733 1.8 39 17.4 102100 74
2008-08-26 08:42:00 51°13.703 2°55.734 2.4 77 17.4 102100 74
2008-08-26 08:42:05 51°13.707 2°55.735 3.2 34 17.4 102100 74
2008-08-26 08:42:10 51°13.71 2°55.735 2.3 282 17.4 102100 74
2008-08-26 08:42:15 51°13.715 2°55.735 5.1 258 17.4 102100 74
2008-08-26 08:42:20 51°13.72 2°55.733 2.9 278 17.4 102100 74
2008-08-26 08:42:25 51°13.725 2°55.73 4.1 239 17.4 102100 74
2008-08-26 08:42:30 51°13.731 2°55.727 5.6 284 17.4 102100 74
2008-08-26 08:42:35 51°13.737 2°55.722 4.3 253 17.4 102100 74
2008-08-26 08:42:40 51°13.744 2°55.717 4 282 17.4 102100 74
2008-08-26 08:42:45 51°13.751 2°55.711 4 246 17.4 102100 74
2008-08-26 08:42:50 51°13.758 2°55.704 4.2 283 17.4 102100 74
2008-08-26 08:42:55 51°13.765 2°55.697 3.2 237 17.4 102100 74
2008-08-26 08:43:00 51°13.773 2°55.69 3.3 284 17.4 102100 74
2008-08-26 08:43:05 51°13.781 2°55.683 3.1 248 17.4 102100 73
2008-08-26 08:43:09 51°13.788 2°55.677 3.3 283 17.4 102100 73
2008-08-26 08:43:15 51°13.798 2°55.668 2.8 34 17.4 102100 73
2008-08-26 08:43:20 51°13.807 2°55.66 4.8 277 17.4 102100 73
2008-08-26 08:43:25 51°13.816 2°55.653 6.1 238 17.4 102100 73
2008-08-26 08:43:30 51°13.825 2°55.645 5.1 278 17.4 102100 73
2008-08-26 08:43:35 51°13.835 2°55.638 4.2 245 17.4 102110 73
2008-08-26 08:43:40 51°13.844 2°55.63 4.1 278 17.4 102110 73
2008-08-26 08:43:45 51°13.854 2°55.623 2.7 35 17.4 102100 73
2008-08-26 08:43:50 51°13.863 2°55.616 4.1 285 17.4 102100 73
2008-08-26 08:43:55 51°13.873 2°55.608 4.6 27 17.5 102100 73
2008-08-26 08:44:00 51°13.883 2°55.6 3.4 284 17.5 102100 73
2008-08-26 08:44:05 51°13.893 2°55.593 4.1 34 17.5 102100 73
2008-08-26 08:44:10 51°13.903 2°55.585 4.5 284 17.5 102100 73
2008-08-26 08:44:15 51°13.913 2°55.578 5.2 253 17.5 102100 73
2008-08-26 08:44:20 51°13.923 2°55.571 2.7 284 17.4 102100 73
2008-08-26 08:44:25 51°13.933 2°55.563 3.6 320 17.5 102100 73
2008-08-26 08:44:29 51°13.941 2°55.557 4.9 282 17.5 102100 73
2008-08-26 08:44:35 51°13.953 2°55.548 5.2 322 17.5 102100 73
2008-08-26 08:44:40 51°13.963 2°55.54 3.7 285 17.5 102100 73
2008-08-26 08:44:45 51°13.973 2°55.533 3.3 236 17.5 102110 73
2008-08-26 08:44:49 51°13.981 2°55.527 2.8 278 17.5 102110 73
2008-08-26 08:44:55 51°13.993 2°55.518 4.5 317 17.5 102100 73
2008-08-26 08:45:00 51°14.003 2°55.509 7.5 286 17.5 102100 73
2008-08-26 08:45:05 51°14.013 2°55.501 6.8 237 17.5 102100 73
2008-08-26 08:45:10 51°14.023 2°55.494 5.7 277 17.5 102100 73
2008-08-26 08:45:15 51°14.033 2°55.486 6.1 32 17.5 102100 73
2008-08-26 08:45:20 51°14.043 2°55.478 6 279 17.5 102100 73
2008-08-26 08:45:25 51°14.053 2°55.47 7.3 242 17.5 102100 73
2008-08-26 08:45:29 51°14.061 2°55.463 6.4 280 17.5 102100 73
2008-08-26 08:45:35 51°14.073 2°55.455 5.8 241 17.5 102090 73
2008-08-26 08:45:40 51°14.083 2°55.447 3.9 282 17.5 102090 73
2008-08-26 08:45:45 51°14.093 2°55.439 3.3 240 17.5 102090 73
2008-08-26 08:45:50 51°14.104 2°55.431 3.8 279 17.5 102090 73
2008-08-26 08:45:55 51°14.115 2°55.422 4.7 39 17.5 102090 73
2008-08-26 08:46:00 51°14.125 2°55.413 4.9 283 17.5 102090 73
2008-08-26 08:46:05 51°14.136 2°55.405 3.4 33 17.5 102090 73
2008-08-26 08:46:10 51°14.147 2°55.395 6.5 280 17.5 102090 73
2008-08-26 08:46:15 51°14.158 2°55.385 6.2 317 17.5 102100 73
2008-08-26 08:46:20 51°14.169 2°55.374 6.5 277 17.5 102100 73
2008-08-26 08:46:25 51°14.18 2°55.363 5.9 320 17.5 102100 73
2008-08-26 08:46:30 51°14.191 2°55.352 5.9 285 17.5 102100 73
2008-08-26 08:46:35 51°14.202 2°55.34 7.9 34 17.5 102100 73
2008-08-26 08:46:40 51°14.212 2°55.327 8.1 282 17.5 102090 73
2008-08-26 08:46:45 51°14.222 2°55.314 5.7 38 17.5 102090 73
2008-08-26 08:46:50 51°14.233 2°55.3 9.2 282 17.5 102090 73
2008-08-26 08:46:55 51°14.243 2°55.286 7.3 233 17.5 102080 73
2008-08-26 08:47:00 51°14.253 2°55.271 6.5 285 17.5 102080 73
2008-08-26 08:47:05 51°14.263 2°55.257 7.8 37 17.6 102090 72
2008-08-26 08:47:09 51°14.271 2°55.244 9.3 280 17.6 102090 72
2008-08-26 08:47:15 51°14.283 2°55.226 9.5 237 17.6 102090 72
2008-08-26 08:47:20 51°14.293 2°55.209 7.7 279 17.6 102090 72
2008-08-26 08:47:25 51°14.303 2°55.194 8.5 32 17.6 102090 73
2008-08-26 08:47:30 51°14.313 2°55.177 10.4 283 17.6 102090 73
2008-08-26 08:47:35 51°14.323 2°55.161 9.9 36 17.6 102090 73
2008-08-26 08:47:40 51°14.333 2°55.144 8 278 17.6 102090 73
2008-08-26 08:47:45 51°14.343 2°55.127 10.5 35 17.6 102080 74
2008-08-26 08:47:50 51°14.353 2°55.11 8.6 282 17.6 102080 74
2008-08-26 08:47:55 51°14.364 2°55.094 10.6 35 17.6 102080 74
2008-08-26 08:48:00 51°14.374 2°55.078 9.7 282 17.6 102080 74
2008-08-26 08:48:05 51°14.385 2°55.062 8.2 236 17.6 102080 74
2008-08-26 08:48:10 51°14.396 2°55.046 7.9 279 17.6 102080 74
2008-08-26 08:48:15 51°14.407 2°55.031 8.4 238 17.6 102080 73
2008-08-26 08:48:20 51°14.418 2°55.014 8.4 280 17.6 102080 73
2008-08-26 08:48:25 51°14.429 2°54.999 9.5 33 17.6 102080 73
2008-08-26 08:48:29 51°14.438 2°54.986 9.9 280 17.6 102080 73
2008-08-26 08:48:35 51°14.451 2°54.968 7.9 236 17.6 102080 73
2008-08-26 08:48:40 51°14.462 2°54.952 8.9 284 17.6 102080 73
2008-08-26 08:48:45 51°14.473 2°54.936 10.1 34 17.6 102070 73
2008-08-26 08:48:50 51°14.484 2°54.921 10.5 283 17.6 102070 73
2008-08-26 08:48:55 51°14.495 2°54.905 10.4 237 17.6 102080 74
2008-08-26 08:49:00 51°14.505 2°54.89 8.6 278 17.6 102080 74
2008-08-26 08:49:05 51°14.516 2°54.874 8.6 36 17.6 102080 74
2008-08-26 08:49:10 51°14.527 2°54.858 9.1 281 17.6 102080 74
2008-08-26 08:49:15 51°14.537 2°54.842 9 234 17.6 102080 74
2008-08-26 08:49:20 51°14.546 2°54.825 8.9 280 17.6 102080 74
2008-08-26 08:49:25 51°14.556 2°54.807 8.9 36 17.6 102080 74
2008-08-26 08:49:30 51°14.564 2°54.789 11.8 284 17.6 102080 74
2008-08-26 08:49:35 51°14.572 2°54.77 9 234 17.5 102070 74
2008-08-26 08:49:40 51°14.579 2°54.752 11.1 285 17.5 102070 74
2008-08-26 08:49:45 51°14.586 2°54.732 11.6 32 17.5 102070 75
2008-08-26 08:49:50 51°14.591 2°54.713 9.3 278 17.5 102070 75
2008-08-26 08:49:55 51°14.597 2°54.692 10.8 316 17.5 102070 75
2008-08-26 08:50:00 51°14.601 2°54.672 13.2 282 17.5 102070 75
2008-08-26 08:50:05 51°14.606 2°54.652 9.7 34 17.5 102070 75
2008-08-26 08:50:10 51°14.61 2°54.631 13.7 282 17.5 102070 75
2008-08-26 08:50:15 51°14.615 2°54.611 13 40 17.6 102060 75
2008-08-26 08:50:20 51°14.619 2°54.59 10.4 279 17.6 102060 75
2008-08-26 08:50:25 51°14.624 2°54.57 13.1 231 17.6 102060 76
2008-08-26 08:50:30 51°14.629 2°54.549 12.3 284 17.6 102060 76
2008-08-26 08:50:35 51°14.634 2°54.528 10.3 29 17.5 102060 76
2008-08-26 08:50:40 51°14.639 2°54.507 10 279 17.5 102060 76
2008-08-26 08:50:45 51°14.644 2°54.486 12.5 39 17.5 102060 75
2008-08-26 08:50:50 51°14.649 2°54.465 13.4 280 17.5 102060 75
2008-08-26 08:50:55 51°14.654 2°54.443 10.6 41 17.5 102060 76
2008-08-26 08:51:00 51°14.66 2°54.422 11.2 281 17.5 102060 76
2008-08-26 08:51:05 51°14.666 2°54.4 12.5 35 17.5 102060 77
2008-08-26 08:51:09 51°14.67 2°54.383 10.6 281 17.5 102060 77
2008-08-26 08:51:15 51°14.678 2°54.356 14 38 17.5 102060 77
2008-08-26 08:51:20 51°14.683 2°54.334 11.1 276 17.5 102060 76
2008-08-26 08:51:25 51°14.689 2°54.312 10.8 35 17.5 102060 76
2008-08-26 08:51:30 51°14.694 2°54.289 13.8 277 17.5 102060 76
2008-08-26 08:51:35 51°14.7 2°54.266 10.8 39 17.5 102060 76
2008-08-26 08:51:40 51°14.705 2°54.243 10.9 280 17.5 102060 76
2008-08-26 08:51:45 51°14.71 2°54.22 12.6 38 17.5 102050 76
2008-08-26 08:51:50 51°14.715 2°54.197 11.7 276 17.5 102050 76
2008-08-26 08:51:55 51°14.72 2°54.174 13.8 38 17.5 102060 77
2008-08-26 08:52:00 51°14.725 2°54.151 11.2 277 17.5 102060 77
2008-08-26 08:52:05 51°14.73 2°54.128 10.9 40 17.5 102060 77
2008-08-26 08:52:10 51°14.735 2°54.104 11.3 279 17.5 102060 77
2008-08-26 08:52:15 51°14.74 2°54.081 14 36 17.5 102050 76
2008-08-26 08:52:20 51°14.745 2°54.057 11.7 280 17.5 102050 76
2008-08-26 08:52:25 51°14.749 2°54.034 13.9 33 17.4 102050 76
2008-08-26 08:52:30 51°14.753 2°54.011 13.4 276 17.4 102050 76
2008-08-26 08:52:35 51°14.757 2°53.987 12.5 37 17.4 102050 76
2008-08-26 08:52:40 51°14.762 2°53.963 13.7 281 17.4 102050 76
2008-08-26 08:52:45 51°14.767 2°53.939 14.4 34 17.4 102050 76
2008-08-26 08:52:50 51°14.771 2°53.915 13.2 285 17.5 102050 77
2008-08-26 08:52:55 51°14.776 2°53.891 13.4 31 17.5 102060 77
2008-08-26 08:53:00 51°14.781 2°53.867 14.1 281 17.5 102060 77
2008-08-26 08:53:05 51°14.785 2°53.843 13 41 17.5 102060 77
2008-08-26 08:53:10 51°14.789 2°53.818 10.8 282 17.4 102050 77
2008-08-26 08:53:15 51°14.793 2°53.794 10.8 39 17.4 102050 77
2008-08-26 08:53:20 51°14.797 2°53.769 11 281 17.4 102060 77
2008-08-26 08:53:25 51°14.801 2°53.744 14.5 36 17.4 102060 77
2008-08-26 08:53:30 51°14.805 2°53.72 13.3 286 17.4 102050 77
2008-08-26 08:53:35 51°14.808 2°53.695 14.3 35 17.4 102050 77
2008-08-26 08:53:40 51°14.812 2°53.67 14.6 277 17.5 102050 78
2008-08-26 08:53:45 51°14.815 2°53.645 12 41 17.5 102050 78
2008-08-26 08:53:50 51°14.819 2°53.62 11.8 279 17.5 102050 78
2008-08-26 08:53:55 51°14.823 2°53.595 13.9 37 17.5 102050 78
2008-08-26 08:54:00 51°14.826 2°53.571 13.7 280 17.4 102050 78
2008-08-26 08:54:05 51°14.829 2°53.545 11.3 37 17.4 102050 77
2008-08-26 08:54:10 51°14.833 2°53.521 14.5 281 17.4 102050 77
2008-08-26 08:54:15 51°14.836 2°53.496 13.5 315 17.4 102050 77
2008-08-26 08:54:20 51°14.839 2°53.471 11.6 277 17.4 102050 77
2008-08-26 08:54:25 51°14.842 2°53.446 13.5 34 17.4 102050 77
2008-08-26 08:54:30 51°14.845 2°53.421 10.1 278 17.4 102050 77
2008-08-26 08:54:35 51°14.847 2°53.396 11.9 39 17.4 102050 77
2008-08-26 08:54:40 51°14.85 2°53.371 11.5 281 17.4 102050 77
2008-08-26 08:54:45 51°14.854 2°53.346 11.2 37 17.4 102050 77
2008-08-26 08:54:50 51°14.857 2°53.321 12.9 281 17.4 102050 78
2008-08-26 08:54:55 51°14.86 2°53.296 14.8 37 17.4 102060 79
2008-08-26 08:55:00 51°14.863 2°53.271 11.7 282 17.4 102060 79
2008-08-26 08:55:05 51°14.867 2°53.246 11.2 39 17.4 102060 79
2008-08-26 08:55:10 51°14.87 2°53.221 10.9 284 17.4 102050 79
2008-08-26 08:55:15 51°14.873 2°53.196 14 36 17.4 102050 79
2008-08-26 08:55:20 51°14.876 2°53.171 10.9 278 17.4 102060 79
2008-08-26 08:55:25 51°14.879 2°53.146 11 41 17.4 102060 79
2008-08-26 08:55:30 51°14.883 2°53.121 11.5 280 17.4 102050 79
2008-08-26 08:55:35 51°14.885 2°53.097 11.6 40 17.4 102050 79
2008-08-26 08:55:40 51°14.889 2°53.072 13.7 285 17.4 102060 79
2008-08-26 08:55:45 51°14.892 2°53.046 10.6 33 17.4 102060 79
2008-08-26 08:55:50 51°14.895 2°53.022 11.7 279 17.4 102060 79
2008-08-26 08:55:55 51°14.899 2°52.997 13.6 36 17.4 102060 79
2008-08-26 08:56:00 51°14.903 2°52.972 14.3 280 17.4 102060 79
2008-08-26 08:56:05 51°14.906 2°52.947 12.2 33 17.4 102050 79
2008-08-26 08:56:10 51°14.91 2°52.922 11.4 286 17.4 102050 79
2008-08-26 08:56:15 51°14.914 2°52.897 14.4 316 17.4 102050 79
2008-08-26 08:56:20 51°14.918 2°52.872 14 281 17.4 102050 79
2008-08-26 08:56:25 51°14.922 2°52.848 14.7 33 17.4 102050 79
2008-08-26 08:56:30 51°14.926 2°52.823 13.5 283 17.4 102050 79
2008-08-26 08:56:35 51°14.93 2°52.798 11.5 315 17.4 102050 79
2008-08-26 08:56:40 51°14.934 2°52.773 12.9 280 17.4 102060 79
2008-08-26 08:56:45 51°14.937 2°52.748 13.3 33 17.4 102060 79
2008-08-26 08:56:50 51°14.941 2°52.724 13.1 281 17.4 102050 79
2008-08-26 08:56:55 51°14.944 2°52.699 12.5 36 17.4 102050 79
2008-08-26 08:57:00 51°14.948 2°52.674 13.9 282 17.4 102050 79
2008-08-26 08:57:05 51°14.952 2°52.649 13 39 17.4 102050 79
2008-08-26 08:57:10 51°14.956 2°52.624 11.5 282 17.3 102050 78
2008-08-26 08:57:15 51°14.96 2°52.6 14.1 39 17.3 102050 78
2008-08-26 08:57:20 51°14.964 2°52.575 11.7 282 17.3 102060 79
2008-08-26 08:57:25 51°14.968 2°52.551 14 317 17.3 102060 79
2008-08-26 08:57:30 51°14.972 2°52.526 14 281 17.3 102060 78
2008-08-26 08:57:35 51°14.975 2°52.501 14.7 317 17.3 102060 78
2008-08-26 08:57:40 51°14.979 2°52.476 14.3 281 17.3 102050 78
2008-08-26 08:57:45 51°14.982 2°52.452 14.4 319 17.3 102050 78
2008-08-26 08:57:50 51°14.985 2°52.427 15.6 283 17.3 102050 78
2008-08-26 08:57:55 51°14.989 2°52.402 13.3 316 17.3 102050 78
2008-08-26 08:58:00 51°14.992 2°52.377 15.1 277 17.3 102050 78
2008-08-26 08:58:05 51°14.995 2°52.353 14 35 17.3 102050 78
2008-08-26 08:58:10 51°14.998 2°52.328 13.3 285 17.3 102050 78
2008-08-26 08:58:15 51°15.001 2°52.303 13.6 316 17.3 102050 78
2008-08-26 08:58:20 51°15.004 2°52.278 13.6 280 17.3 102050 78
2008-08-26 08:58:25 51°15.008 2°52.254 14.5 318 17.3 102050 78
2008-08-26 08:58:30 51°15.011 2°52.229 14 284 17.3 102050 78
2008-08-26 08:58:35 51°15.014 2°52.205 12.3 315 17.3 102050 78
2008-08-26 08:58:40 51°15.018 2°52.18 13.2 278 17.4 102060 79
2008-08-26 08:58:45 51°15.021 2°52.155 12.4 316 17.4 102060 79
2008-08-26 08:58:50 51°15.024 2°52.131 11.9 282 17.4 102060 79
2008-08-26 08:58:55 51°15.028 2°52.106 13.2 37 17.4 102060 79
2008-08-26 08:59:00 51°15.031 2°52.081 10.9 276 17.4 102050 79
2008-08-26 08:59:05 51°15.035 2°52.057 11.5 38 17.4 102050 79
2008-08-26 08:59:10 51°15.039 2°52.032 13.6 279 17.4 102060 79
2008-08-26 08:59:15 51°15.043 2°52.007 15.4 35 17.4 102060 79
2008-08-26 08:59:20 51°15.048 2°51.983 14.4 277 17.4 102050 79
2008-08-26 08:59:25 51°15.052 2°51.958 11.6 315 17.4 102050 79
2008-08-26 08:59:30 51°15.056 2°51.934 15.1 285 17.4 102050 80
2008-08-26 08:59:35 51°15.06 2°51.909 13.3 316 17.4 102050 80
2008-08-26 08:59:40 51°15.064 2°51.885 12.8 285 17.4 102050 79
2008-08-26 08:59:45 51°15.068 2°51.86 14.4 317 17.4 102050 79
2008-08-26 08:59:50 51°15.072 2°51.836 14.3 278 17.4 102050 78
2008-08-26 08:59:55 51°15.076 2°51.812 16.5 315 17.4 102050 78
2008-08-26 09:00:00 51°15.079 2°51.787 12.7 280 17.4 102050 79
2008-08-26 09:00:05 51°15.082 2°51.762 13.6 34 17.4 102050 79
2008-08-26 09:00:10 51°15.086 2°51.738 14.6 281 17.4 102050 79
2008-08-26 09:00:15 51°15.089 2°51.713 15 36 17.4 102050 79
2008-08-26 09:00:20 51°15.093 2°51.689 15.9 282 17.4 102040 78
2008-08-26 09:00:25 51°15.096 2°51.664 13.3 38 17.4 102040 78
2008-08-26 09:00:30 51°15.1 2°51.639 15 284 17.3 102050 78
2008-08-26 09:00:35 51°15.103 2°51.615 14.4 33 17.3 102050 78
2008-08-26 09:00:40 51°15.106 2°51.59 12.1 278 17.3 102050 78
2008-08-26 09:00:45 51°15.11 2°51.565 14.9 36 17.3 102050 78
2008-08-26 09:00:50 51°15.113 2°51.541 11.9 280 17.3 102050 78
2008-08-26 09:00:55 51°15.117 2°51.516 14.4 36 17.3 102050 78
2008-08-26 09:01:00 51°15.121 2°51.492 15.8 281 17.4 102040 78
2008-08-26 09:01:05 51°15.125 2°51.467 13.1 37 17.4 102040 78
2008-08-26 09:01:10 51°15.129 2°51.443 14.8 280 17.4 102050 79
2008-08-26 09:01:15 51°15.133 2°51.418 14.9 35 17.4 102050 79
2008-08-26 09:01:20 51°15.138 2°51.394 12.6 280 17.4 102050 79
2008-08-26 09:01:25 51°15.141 2°51.369 12.7 38 17.4 102050 79
2008-08-26 09:01:30 51°15.146 2°51.345 14.5 283 17.4 102050 79
2008-08-26 09:01:35 51°15.149 2°51.321 14.4 33 17.4 102050 79
2008-08-26 09:01:40 51°15.153 2°51.296 12.8 281 17.4 102040 79
2008-08-26 09:01:45 51°15.157 2°51.271 12 39 17.4 102040 79
2008-08-26 09:01:50 51°15.161 2°51.247 11.5 281 17.4 102050 79
2008-08-26 09:01:55 51°15.165 2°51.222 12.7 317 17.4 102050 79
2008-08-26 09:02:00 51°15.17 2°51.198 12.7 276 17.4 102050 79
2008-08-26 09:02:05 51°15.174 2°51.173 12.6 35 17.4 102050 79
2008-08-26 09:02:10 51°15.179 2°51.149 14.3 281 17.4 102050 79
2008-08-26 09:02:15 51°15.183 2°51.125 12.6 36 17.4 102050 79
2008-08-26 09:02:20 51°15.187 2°51.101 12.7 283 17.4 102050 80
2008-08-26 09:02:25 51°15.192 2°51.076 14.5 39 17.4 102050 80
2008-08-26 09:02:30 51°15.196 2°51.052 13.8 283 17.4 102060 80
2008-08-26 09:02:35 51°15.201 2°51.028 13.2 32 17.4 102060 80
2008-08-26 09:02:40 51°15.205 2°51.003 11.6 277 17.4 102050 79
2008-08-26 09:02:45 51°15.209 2°50.979 12.5 37 17.4 102050 79
2008-08-26 09:02:50 51°15.213 2°50.955 14.2 281 17.4 102050 79
2008-08-26 09:02:55 51°15.218 2°50.93 14.6 38 17.4 102050 79
2008-08-26 09:03:00 51°15.222 2°50.906 14 24 17.4 102050 80
2008-08-26 09:03:05 51°15.226 2°50.882 12.9 35 17.4 102060 80
2008-08-26 09:03:10 51°15.231 2°50.857 13.5 281 17.4 102060 80
2008-08-26 09:03:15 51°15.235 2°50.833 12.4 38 17.4 102060 80
2008-08-26 09:03:20 51°15.24 2°50.809 12.5 277 17.4 102050 80
2008-08-26 09:03:25 51°15.245 2°50.784 12 40 17.4 102050 80
2008-08-26 09:03:30 51°15.25 2°50.76 13.6 282 17.4 102050 80
2008-08-26 09:03:35 51°15.256 2°50.736 13.9 40 17.4 102050 80
2008-08-26 09:03:40 51°15.261 2°50.712 12 285 17.4 102050 80
2008-08-26 09:03:45 51°15.266 2°50.688 13 316 17.4 102050 80
2008-08-26 09:03:50 51°15.27 2°50.664 12.1 284 17.4 102050 81
2008-08-26 09:03:55 51°15.276 2°50.64 12.9 36 17.4 102060 81
2008-08-26 09:04:00 51°15.28 2°50.616 14.2 281 17.4 102060 81
2008-08-26 09:04:05 51°15.285 2°50.591 12.7 35 17.4 102060 81
2008-08-26 09:04:10 51°15.29 2°50.567 13.1 277 17.4 102050 81
2008-08-26 09:04:15 51°15.296 2°50.543 14.6 38 17.4 102050 81
2008-08-26 09:04:20 51°15.301 2°50.519 13.8 276 17.4 102050 81
2008-08-26 09:04:25 51°15.306 2°50.495 15 36 17.4 102050 81
2008-08-26 09:04:30 51°15.311 2°50.471 12.5 283 17.4 102050 81
2008-08-26 09:04:35 51°15.316 2°50.447 14.7 39 17.4 102050 81
2008-08-26 09:04:40 51°15.321 2°50.423 13.5 282 17.4 102060 81
2008-08-26 09:04:45 51°15.326 2°50.399 14.2 315 17.4 102060 81
2008-08-26 09:04:50 51°15.331 2°50.375 14.5 285 17.4 102050 81
2008-08-26 09:04:55 51°15.336 2°50.351 14.5 315 17.4 102050 81
2008-08-26 09:05:00 51°15.341 2°50.326 12.3 281 17.4 102050 81
2008-08-26 09:05:05 51°15.346 2°50.302 12.5 33 17.4 102050 81
2008-08-26 09:05:10 51°15.351 2°50.278 12.7 280 17.4 102050 81
2008-08-26 09:05:15 51°15.356 2°50.254 13.3 316 17.4 102050 81
2008-08-26 09:05:20 51°15.361 2°50.23 13.6 280 17.4 102050 81
2008-08-26 09:05:25 51°15.366 2°50.206 14.7 36 17.4 102050 81
2008-08-26 09:05:30 51°15.372 2°50.181 15 282 17.4 102050 81
2008-08-26 09:05:35 51°15.377 2°50.157 15.4 33 17.4 102050 81
2008-08-26 09:05:40 51°15.382 2°50.133 14.2 277 17.4 102050 81
2008-08-26 09:05:45 51°15.387 2°50.109 14.5 318 17.4 102050 81
2008-08-26 09:05:50 51°15.392 2°50.085 15.3 281 17.4 102050 81
2008-08-26 09:05:55 51°15.397 2°50.061 13.8 36 17.3 102040 80
2008-08-26 09:06:00 51°15.402 2°50.036 13.4 284 17.3 102040 80
2008-08-26 09:06:05 51°15.407 2°50.012 12.6 38 17.3 102040 80
2008-08-26 09:06:10 51°15.412 2°49.988 12.8 281 17.3 102050 80
2008-08-26 09:06:15 51°15.417 2°49.964 11.9 38 17.3 102050 80
2008-08-26 09:06:20 51°15.422 2°49.94 12.6 281 17.3 102050 80
2008-08-26 09:06:25 51°15.427 2°49.915 14.4 315 17.3 102050 80
2008-08-26 09:06:30 51°15.432 2°49.891 14.8 283 17.4 102040 80
2008-08-26 09:06:35 51°15.437 2°49.867 15.1 37 17.4 102050 81
2008-08-26 09:06:40 51°15.442 2°49.843 14.8 278 17.4 102050 81
2008-08-26 09:06:45 51°15.446 2°49.818 13.1 39 17.4 102050 81
2008-08-26 09:06:50 51°15.452 2°49.794 13.1 284 17.4 102050 80
2008-08-26 09:06:55 51°15.456 2°49.77 12.5 315 17.4 102050 80
2008-08-26 09:07:00 51°15.461 2°49.746 14 282 17.4 102050 81
2008-08-26 09:07:05 51°15.466 2°49.722 15.4 33 17.4 102050 81
2008-08-26 09:07:10 51°15.471 2°49.698 14.6 285 17.4 102050 80
2008-08-26 09:07:15 51°15.476 2°49.674 13.3 39 17.4 102050 80
2008-08-26 09:07:20 51°15.481 2°49.65 11.9 278 17.4 102050 80
2008-08-26 09:07:25 51°15.486 2°49.625 12.3 38 17.3 102050 80
2008-08-26 09:07:30 51°15.491 2°49.601 11.8 283 17.3 102050 80
2008-08-26 09:07:35 51°15.495 2°49.577 15 315 17.3 102050 80
2008-08-26 09:07:40 51°15.5 2°49.553 15.6 278 17.3 102040 80
2008-08-26 09:07:45 51°15.505 2°49.529 15.9 35 17.4 102050 80
2008-08-26 09:07:50 51°15.51 2°49.505 12.8 285 17.4 102050 80
2008-08-26 09:07:55 51°15.515 2°49.481 14.2 38 17.4 102050 80
2008-08-26 09:08:00 51°15.519 2°49.457 14 277 17.4 102050 81
2008-08-26 09:08:05 51°15.525 2°49.433 15.4 37 17.4 102050 81
2008-08-26 09:08:10 51°15.529 2°49.409 11.4 280 17.4 102050 80
2008-08-26 09:08:15 51°15.534 2°49.385 15.9 37 17.4 102050 80
2008-08-26 09:08:20 51°15.539 2°49.361 14.2 279 17.4 102050 81
2008-08-26 09:08:25 51°15.545 2°49.337 15.9 38 17.4 102050 81
2008-08-26 09:08:30 51°15.549 2°49.313 12.7 280 17.4 102050 80
2008-08-26 09:08:35 51°15.555 2°49.289 13.5 317 17.4 102050 80
2008-08-26 09:08:40 51°15.559 2°49.265 14.1 284 17.4 102050 80
2008-08-26 09:08:45 51°15.564 2°49.241 11.5 318 17.4 102050 80
2008-08-26 09:08:50 51°15.569 2°49.217 14.4 277 17.4 102050 80
2008-08-26 09:08:55 51°15.574 2°49.193 14.9 317 17.4 102050 80
2008-08-26 09:09:00 51°15.579 2°49.169 13.2 280 17.4 102050 81
2008-08-26 09:09:05 51°15.583 2°49.145 13.6 316 17.4 102050 81
2008-08-26 09:09:10 51°15.588 2°49.121 15.9 280 17.4 102050 82
2008-08-26 09:09:15 51°15.593 2°49.097 12.4 316 17.4 102050 82
2008-08-26 09:09:20 51°15.598 2°49.073 14.4 279 17.4 102060 82
2008-08-26 09:09:25 51°15.603 2°49.049 15.7 315 17.4 102060 82
2008-08-26 09:09:30 51°15.608 2°49.025 14.9 278 17.4 102060 81
2008-08-26 09:09:35 51°15.612 2°49 11.4 316 17.4 102060 81
2008-08-26 09:09:40 51°15.617 2°48.976 12.5 283 17.4 102050 81
2008-08-26 09:09:45 51°15.622 2°48.952 13 316 17.4 102050 81
2008-08-26 09:09:50 51°15.627 2°48.928 14.7 276 17.4 102060 81
2008-08-26 09:09:55 51°15.632 2°48.904 13.9 316 17.4 102060 81
2008-08-26 09:10:00 51°15.636 2°48.879 12.9 317 17.4 102050 81
2008-08-26 09:10:05 51°15.641 2°48.855 12.8 316 17.4 102050 81
2008-08-26 09:10:10 51°15.646 2°48.831 13.6 280 17.4 102050 81
2008-08-26 09:10:15 51°15.651 2°48.807 12.1 316 17.4 102050 81
2008-08-26 09:10:20 51°15.656 2°48.783 14.3 284 17.4 102050 81
2008-08-26 09:10:25 51°15.661 2°48.759 14.4 318 17.4 102050 81
2008-08-26 09:10:30 51°15.666 2°48.734 14.8 285 17.4 102050 81
2008-08-26 09:10:35 51°15.67 2°48.71 12.9 316 17.4 102050 81
2008-08-26 09:10:40 51°15.675 2°48.686 12.6 278 17.4 102050 81
2008-08-26 09:10:45 51°15.679 2°48.661 17 316 17.4 102050 81
2008-08-26 09:10:50 51°15.684 2°48.636 13.7 277 17.4 102060 82
2008-08-26 09:10:55 51°15.688 2°48.612 16.2 315 17.4 102060 82
2008-08-26 09:11:00 51°15.692 2°48.587 16.6 279 17.4 102060 82
2008-08-26 09:11:05 51°15.696 2°48.563 12 317 17.4 102060 82
2008-08-26 09:11:10 51°15.7 2°48.538 13.1 278 17.4 102050 82
2008-08-26 09:11:15 51°15.704 2°48.513 16.4 320 17.4 102050 82
2008-08-26 09:11:20 51°15.708 2°48.489 16.7 281 17.4 102050 82
2008-08-26 09:11:25 51°15.712 2°48.464 16.5 317 17.4 102050 82
2008-08-26 09:11:30 51°15.716 2°48.44 15.5 283 17.4 102050 82
2008-08-26 09:11:35 51°15.72 2°48.415 15.9 319 17.4 102050 82
2008-08-26 09:11:40 51°15.724 2°48.391 15.5 279 17.5 102060 83
2008-08-26 09:11:45 51°15.728 2°48.366 14 320 17.5 102060 83
2008-08-26 09:11:50 51°15.732 2°48.342 17.5 282 17.4 102050 82
2008-08-26 09:11:55 51°15.737 2°48.317 15.9 320 17.4 102050 82
2008-08-26 09:12:00 51°15.741 2°48.293 13.6 279 17.4 102050 82
2008-08-26 09:12:05 51°15.746 2°48.269 14.1 318 17.4 102060 83
2008-08-26 09:12:10 51°15.751 2°48.245 15.3 278 17.4 102060 83
2008-08-26 09:12:15 51°15.755 2°48.221 13.3 317 17.4 102060 83
2008-08-26 09:12:20 51°15.76 2°48.197 14.6 281 17.4 102040 82
2008-08-26 09:12:25 51°15.764 2°48.173 14.1 319 17.4 102050 82
2008-08-26 09:12:30 51°15.769 2°48.149 16.6 277 17.4 102050 82
2008-08-26 09:12:35 51°15.774 2°48.125 16.5 318 17.4 102050 82
2008-08-26 09:12:40 51°15.778 2°48.101 14.4 281 17.4 102040 82
2008-08-26 09:12:45 51°15.783 2°48.076 13.5 316 17.4 102040 82
2008-08-26 09:12:50 51°15.788 2°48.052 15 280 17.4 102040 81
2008-08-26 09:12:55 51°15.792 2°48.028 13.9 316 17.4 102040 81
2008-08-26 09:13:00 51°15.797 2°48.004 15.6 277 17.4 102060 82
2008-08-26 09:13:05 51°15.801 2°47.98 12 317 17.4 102060 82
2008-08-26 09:13:10 51°15.806 2°47.956 16 281 17.4 102040 81
2008-08-26 09:13:15 51°15.811 2°47.932 13.1 316 17.4 102040 81
2008-08-26 09:13:20 51°15.817 2°47.908 14.4 277 17.4 102040 81
2008-08-26 09:13:25 51°15.822 2°47.885 11.7 316 17.4 102040 81
2008-08-26 09:13:30 51°15.827 2°47.861 12.5 285 17.4 102050 82
2008-08-26 09:13:35 51°15.832 2°47.837 15.5 315 17.4 102050 82
2008-08-26 09:13:40 51°15.838 2°47.813 15.2 284 17.4 102050 82
2008-08-26 09:13:45 51°15.843 2°47.789 15.4 317 17.4 102050 82
2008-08-26 09:13:50 51°15.848 2°47.765 14 283 17.4 102050 82
2008-08-26 09:13:55 51°15.853 2°47.741 13 320 17.4 102050 82
2008-08-26 09:14:00 51°15.858 2°47.717 13.1 284 17.4 102050 82
2008-08-26 09:14:05 51°15.864 2°47.694 13.2 317 17.4 102050 82
2008-08-26 09:14:10 51°15.869 2°47.67 12.5 279 17.4 102060 83
2008-08-26 09:14:15 51°15.875 2°47.646 13.2 318 17.4 102060 83
2008-08-26 09:14:20 51°15.879 2°47.622 17.5 279 17.4 102040 82
2008-08-26 09:14:25 51°15.885 2°47.598 17.3 316 17.4 102060 83
2008-08-26 09:14:30 51°15.89 2°47.574 16.9 284 17.4 102060 83
2008-08-26 09:14:35 51°15.895 2°47.55 16.4 317 17.4 102060 83
2008-08-26 09:14:40 51°15.9 2°47.527 16.9 281 17.5 102040 83
2008-08-26 09:14:45 51°15.905 2°47.503 16.1 317 17.5 102040 83
2008-08-26 09:14:50 51°15.911 2°47.479 14.7 277 17.4 102030 82
2008-08-26 09:14:55 51°15.916 2°47.456 15.9 317 17.4 102030 82
2008-08-26 09:15:00 51°15.921 2°47.432 16.2 280 17.4 102040 82
2008-08-26 09:15:05 51°15.926 2°47.408 14.7 316 17.4 102040 82
2008-08-26 09:15:10 51°15.931 2°47.384 12.4 282 17.4 102030 81
2008-08-26 09:15:15 51°15.936 2°47.36 15.9 319 17.4 102040 81
2008-08-26 09:15:20 51°15.941 2°47.336 13.5 283 17.4 102040 81
2008-08-26 09:15:25 51°15.946 2°47.312 13.7 317 17.4 102040 81
2008-08-26 09:15:30 51°15.952 2°47.288 14.4 280 17.4 102040 82
2008-08-26 09:15:35 51°15.957 2°47.265 13.9 319 17.4 102040 82
2008-08-26 09:15:40 51°15.962 2°47.241 13.1 277 17.5 102050 83
2008-08-26 09:15:45 51°15.967 2°47.217 14.7 318 17.5 102050 83
2008-08-26 09:15:50 51°15.973 2°47.193 16.9 282 17.4 102060 82
2008-08-26 09:15:55 51°15.978 2°47.17 15.9 318 17.4 102050 82
2008-08-26 09:16:00 51°15.983 2°47.146 12.7 278 17.4 102050 82
2008-08-26 09:16:05 51°15.989 2°47.123 16.4 320 17.4 102050 82
2008-08-26 09:16:10 51°15.994 2°47.099 13.4 277 17.4 102050 82
2008-08-26 09:16:15 51°15.999 2°47.075 16.3 318 17.4 102050 82
2008-08-26 09:16:20 51°16.004 2°47.052 15.7 279 17.4 102050 82
2008-08-26 09:16:25 51°16.009 2°47.028 16.9 318 17.4 102050 82
2008-08-26 09:16:30 51°16.014 2°47.004 17 281 17.4 102050 82
2008-08-26 09:16:35 51°16.019 2°46.98 16.1 317 17.4 102050 82
2008-08-26 09:16:40 51°16.024 2°46.956 12.9 277 17.4 102050 82
2008-08-26 09:16:45 51°16.029 2°46.932 14.7 316 17.4 102050 82
2008-08-26 09:16:50 51°16.033 2°46.908 14.6 280 17.4 102050 82
2008-08-26 09:16:55 51°16.038 2°46.884 14.5 35 17.4 102050 82
2008-08-26 09:17:00 51°16.042 2°46.86 15 317 17.4 102050 82
2008-08-26 09:17:05 51°16.047 2°46.836 15.1 320 17.4 102050 82
2008-08-26 09:17:10 51°16.051 2°46.811 15.6 281 17.4 102050 82
2008-08-26 09:17:15 51°16.056 2°46.787 14.4 320 17.4 102060 83
2008-08-26 09:17:20 51°16.061 2°46.763 12.5 280 17.4 102060 83
2008-08-26 09:17:25 51°16.065 2°46.739 13.4 318 17.4 102060 83
2008-08-26 09:17:30 51°16.07 2°46.715 13 277 17.5 102060 83
2008-08-26 09:17:35 51°16.074 2°46.691 13.2 316 17.5 102060 83
2008-08-26 09:17:40 51°16.079 2°46.667 15.3 280 17.5 102050 83
2008-08-26 09:17:45 51°16.083 2°46.643 12.5 317 17.5 102050 83
2008-08-26 09:17:50 51°16.088 2°46.619 12.1 278 17.5 102060 83
2008-08-26 09:17:55 51°16.093 2°46.595 14.1 317 17.5 102060 83
2008-08-26 09:18:00 51°16.098 2°46.571 14.5 285 17.5 102060 83
2008-08-26 09:18:05 51°16.103 2°46.547 15.1 317 17.5 102060 83
2008-08-26 09:18:10 51°16.107 2°46.523 15.2 284 17.5 102050 83
2008-08-26 09:18:15 51°16.112 2°46.499 14.2 319 17.5 102050 83
2008-08-26 09:18:20 51°16.117 2°46.475 12.3 276 17.5 102050 83
2008-08-26 09:18:25 51°16.122 2°46.451 12.6 318 17.5 102050 83
2008-08-26 09:18:30 51°16.127 2°46.427 15 280 17.5 102050 83
2008-08-26 09:18:35 51°16.132 2°46.404 16.1 318 17.5 102050 83
2008-08-26 09:18:40 51°16.137 2°46.38 15 279 17.5 102060 84
2008-08-26 09:18:45 51°16.143 2°46.356 15.8 39 17.5 102060 84
2008-08-26 09:18:50 51°16.148 2°46.332 12.6 282 17.5 102060 84
2008-08-26 09:18:55 51°16.154 2°46.309 14.8 317 17.5 102060 84
2008-08-26 09:19:00 51°16.159 2°46.285 15.9 316 17.5 102050 84
2008-08-26 09:19:05 51°16.165 2°46.262 15.3 316 17.5 102050 83
2008-08-26 09:19:10 51°16.17 2°46.238 13.1 279 17.5 102050 83
2008-08-26 09:19:15 51°16.176 2°46.214 12.9 317 17.5 102050 83
2008-08-26 09:19:20 51°16.181 2°46.19 15 278 17.5 102040 83
2008-08-26 09:19:25 51°16.186 2°46.166 12.9 316 17.5 102040 83
2008-08-26 09:19:30 51°16.192 2°46.143 12.6 282 17.4 102050 83
2008-08-26 09:19:35 51°16.197 2°46.119 13 317 17.4 102050 83
2008-08-26 09:19:40 51°16.202 2°46.095 12.5 285 17.4 102050 83
2008-08-26 09:19:45 51°16.208 2°46.071 13.2 318 17.4 102050 83
2008-08-26 09:19:50 51°16.213 2°46.047 12.7 279 17.4 102050 83
2008-08-26 09:19:55 51°16.218 2°46.023 15.2 317 17.5 102050 84
2008-08-26 09:20:00 51°16.223 2°45.999 12.6 317 17.5 102050 84
2008-08-26 09:20:05 51°16.228 2°45.975 12.7 317 17.5 102050 84
2008-08-26 09:20:10 51°16.233 2°45.95 11.5 280 17.4 102050 83
2008-08-26 09:20:15 51°16.238 2°45.926 13.5 318 17.4 102050 83
2008-08-26 09:20:20 51°16.243 2°45.902 16.1 280 17.4 102050 83
2008-08-26 09:20:25 51°16.248 2°45.878 13.6 318 17.4 102050 83
2008-08-26 09:20:30 51°16.253 2°45.854 15.3 281 17.4 102050 83
2008-08-26 09:20:35 51°16.258 2°45.829 13.8 317 17.4 102050 83
2008-08-26 09:20:40 51°16.263 2°45.805 16.7 284 17.4 102050 83
2008-08-26 09:20:45 51°16.269 2°45.781 14.2 315 17.4 102050 83
2008-08-26 09:20:50 51°16.275 2°45.758 16.5 281 17.4 102050 83
2008-08-26 09:20:55 51°16.28 2°45.733 13.5 316 17.4 102050 83
2008-08-26 09:21:00 51°16.285 2°45.71 13 282 17.4 102040 83
2008-08-26 09:21:05 51°16.29 2°45.686 15.1 316 17.4 102040 83
2008-08-26 09:21:10 51°16.295 2°45.662 16.7 280 17.4 102060 83
2008-08-26 09:21:15 51°16.3 2°45.638 15.7 33 17.4 102060 83
2008-08-26 09:21:20 51°16.306 2°45.614 12.9 280 17.4 102050 83
2008-08-26 09:21:25 51°16.312 2°45.59 13.2 315 17.4 102040 83
2008-08-26 09:21:30 51°16.318 2°45.566 15.1 279 17.4 102040 83
2008-08-26 09:21:35 51°16.323 2°45.541 13 320 17.4 102040 83
2008-08-26 09:21:40 51°16.328 2°45.517 15.7 280 17.4 102050 83
2008-08-26 09:21:45 51°16.333 2°45.493 13.4 318 17.4 102050 83
2008-08-26 09:21:50 51°16.339 2°45.469 13.9 281 17.4 102050 83
2008-08-26 09:21:55 51°16.344 2°45.444 12.3 316 17.4 102050 83
2008-08-26 09:22:00 51°16.349 2°45.421 17 282 17.4 102040 84
2008-08-26 09:22:05 51°16.355 2°45.398 15.2 317 17.4 102040 84
2008-08-26 09:22:10 51°16.362 2°45.375 17 285 17.4 102060 84
2008-08-26 09:22:15 51°16.37 2°45.352 13.2 37 17.4 102040 84
2008-08-26 09:22:20 51°16.378 2°45.329 13 281 17.4 102040 84
2008-08-26 09:22:25 51°16.386 2°45.306 14 36 17.4 102040 84
2008-08-26 09:22:30 51°16.394 2°45.284 16.6 282 17.4 102040 84
2008-08-26 09:22:35 51°16.401 2°45.262 12.4 39 17.4 102050 84
2008-08-26 09:22:40 51°16.409 2°45.239 16.1 279 17.4 102050 84
2008-08-26 09:22:45 51°16.417 2°45.217 15.1 316 17.4 102050 84
2008-08-26 09:22:50 51°16.425 2°45.194 15.7 281 17.4 102040 84
2008-08-26 09:22:55 51°16.434 2°45.171 13.8 315 17.4 102040 84
2008-08-26 09:23:00 51°16.442 2°45.149 16.9 281 17.4 102050 84
2008-08-26 09:23:05 51°16.451 2°45.127 16 316 17.4 102050 85
2008-08-26 09:23:10 51°16.46 2°45.105 14.6 284 17.4 102050 85
2008-08-26 09:23:15 51°16.469 2°45.083 13.3 315 17.4 102050 85
2008-08-26 09:23:20 51°16.477 2°45.061 13 281 17.4 102040 85
2008-08-26 09:23:25 51°16.486 2°45.039 12.9 38 17.4 102040 85
2008-08-26 09:23:30 51°16.494 2°45.017 14.3 281 17.4 102050 85
2008-08-26 09:23:35 51°16.503 2°44.995 15.2 35 17.4 102050 85
2008-08-26 09:23:40 51°16.511 2°44.973 13.4 281 17.4 102040 85
2008-08-26 09:23:45 51°16.52 2°44.95 16.6 37 17.4 102050 84
2008-08-26 09:23:50 51°16.528 2°44.928 12.6 281 17.4 102050 84
2008-08-26 09:23:55 51°16.537 2°44.906 16.2 37 17.3 102040 84
2008-08-26 09:24:00 51°16.546 2°44.884 13.1 24 17.3 102040 84
2008-08-26 09:24:05 51°16.554 2°44.862 15.7 35 17.3 102040 84
2008-08-26 09:24:10 51°16.562 2°44.84 16.5 277 17.3 102050 84
2008-08-26 09:24:15 51°16.57 2°44.818 16.1 40 17.3 102050 84
2008-08-26 09:24:20 51°16.578 2°44.795 15.7 280 17.3 102050 84
2008-08-26 09:24:25 51°16.587 2°44.772 15.4 315 17.3 102050 84
2008-08-26 09:24:30 51°16.595 2°44.75 13 279 17.3 102050 85
2008-08-26 09:24:35 51°16.604 2°44.727 13 37 17.3 102050 85
2008-08-26 09:24:40 51°16.612 2°44.704 13.5 284 17.3 102050 85
2008-08-26 09:24:45 51°16.62 2°44.682 14.7 38 17.3 102050 85
2008-08-26 09:24:50 51°16.629 2°44.66 15.8 280 17.3 102050 85
2008-08-26 09:24:55 51°16.637 2°44.637 15.5 315 17.3 102050 85
2008-08-26 09:25:00 51°16.646 2°44.615 13.1 284 17.3 102050 85
2008-08-26 09:25:05 51°16.654 2°44.593 13.2 315 17.3 102050 85
2008-08-26 09:25:10 51°16.662 2°44.571 16.8 279 17.3 102050 85
2008-08-26 09:25:15 51°16.67 2°44.549 12.7 39 17.3 102050 85
2008-08-26 09:25:20 51°16.679 2°44.527 15 277 17.3 102040 85
2008-08-26 09:25:25 51°16.687 2°44.505 15.8 36 17.3 102040 85
2008-08-26 09:25:30 51°16.696 2°44.483 15.6 280 17.3 102040 85
2008-08-26 09:25:35 51°16.704 2°44.46 15.7 33 17.3 102040 85
2008-08-26 09:25:40 51°16.713 2°44.438 15.4 280 17.3 102040 85
2008-08-26 09:25:45 51°16.721 2°44.416 15 37 17.3 102050 85
2008-08-26 09:25:50 51°16.729 2°44.394 15.5 280 17.3 102050 85
2008-08-26 09:25:55 51°16.738 2°44.371 10.9 37 17.3 102050 85
2008-08-26 09:26:00 51°16.746 2°44.349 12.3 26 17.3 102050 85
2008-08-26 09:26:05 51°16.755 2°44.326 15.1 40 17.3 102050 85
2008-08-26 09:26:10 51°16.764 2°44.304 15.1 280 17.3 102040 85
2008-08-26 09:26:15 51°16.773 2°44.281 15.3 37 17.3 102040 85
2008-08-26 09:26:20 51°16.782 2°44.258 15.2 285 17.3 102050 86
2008-08-26 09:26:25 51°16.79 2°44.235 13.1 318 17.3 102050 86
2008-08-26 09:26:30 51°16.798 2°44.213 15.6 280 17.3 102050 86
2008-08-26 09:26:35 51°16.806 2°44.19 14.9 315 17.3 102050 86
2008-08-26 09:26:40 51°16.815 2°44.167 14.9 285 17.3 102050 86
2008-08-26 09:26:45 51°16.823 2°44.145 11.6 316 17.3 102050 86
2008-08-26 09:26:50 51°16.832 2°44.122 12.9 284 17.3 102070 86
2008-08-26 09:26:55 51°16.84 2°44.1 14.8 36 17.3 102070 86
2008-08-26 09:27:00 51°16.847 2°44.078 13.8 284 17.3 102070 86
2008-08-26 09:27:05 51°16.855 2°44.055 13.1 317 17.3 102070 86
2008-08-26 09:27:10 51°16.86 2°44.032 15.8 281 17.3 102070 85
2008-08-26 09:27:15 51°16.867 2°44.009 16.1 316 17.3 102060 86
2008-08-26 09:27:20 51°16.872 2°43.985 15.6 279 17.3 102060 86
2008-08-26 09:27:25 51°16.876 2°43.961 12.4 320 17.3 102060 86
2008-08-26 09:27:30 51°16.88 2°43.936 11.8 279 17.3 102070 86
2008-08-26 09:27:35 51°16.884 2°43.912 14.9 322 17.3 102070 86
2008-08-26 09:27:40 51°16.887 2°43.887 13.6 276 17.3 102080 86
2008-08-26 09:27:45 51°16.89 2°43.862 16.1 323 17.3 102070 86
2008-08-26 09:27:50 51°16.892 2°43.837 15.9 281 17.3 102070 86
2008-08-26 09:27:55 51°16.893 2°43.812 16.1 324 17.3 102070 86
2008-08-26 09:28:00 51°16.893 2°43.787 16.6 281 17.3 102080 86
2008-08-26 09:28:05 51°16.893 2°43.762 15.9 324 17.3 102080 86
2008-08-26 09:28:10 51°16.893 2°43.737 14 279 17.3 102070 86
2008-08-26 09:28:15 51°16.892 2°43.712 15.8 325 17.3 102070 86
2008-08-26 09:28:20 51°16.891 2°43.688 12.8 280 17.3 102070 86
2008-08-26 09:28:25 51°16.89 2°43.662 14 326 17.3 102070 86
2008-08-26 09:28:30 51°16.888 2°43.637 14 282 17.3 102070 86
2008-08-26 09:28:35 51°16.887 2°43.612 13.4 324 17.3 102080 86
2008-08-26 09:28:40 51°16.886 2°43.587 13.7 279 17.3 102080 86
2008-08-26 09:28:45 51°16.884 2°43.562 13.8 325 17.3 102080 86
2008-08-26 09:28:50 51°16.883 2°43.536 14 283 17.3 102080 86
2008-08-26 09:28:55 51°16.882 2°43.511 14.5 326 17.3 102080 86
2008-08-26 09:29:00 51°16.88 2°43.486 13.2 278 17.2 102080 86
2008-08-26 09:29:05 51°16.879 2°43.461 12 327 17.2 102080 86
2008-08-26 09:29:10 51°16.878 2°43.436 15.8 285 17.2 102070 86
2008-08-26 09:29:15 51°16.877 2°43.41 14.8 325 17.2 102070 86
2008-08-26 09:29:20 51°16.875 2°43.385 11.9 280 17.2 102070 86
2008-08-26 09:29:25 51°16.874 2°43.36 15.1 326 17.2 102070 86
2008-08-26 09:29:30 51°16.872 2°43.334 15.3 281 17.2 102080 86
2008-08-26 09:29:35 51°16.871 2°43.309 14.5 325 17.2 102080 86
2008-08-26 09:29:40 51°16.869 2°43.284 12.8 276 17.3 102080 87
2008-08-26 09:29:45 51°16.868 2°43.259 15.1 325 17.3 102080 87
2008-08-26 09:29:50 51°16.866 2°43.233 13.1 276 17.3 102080 87
2008-08-26 09:29:55 51°16.865 2°43.208 15.2 324 17.3 102080 87
2008-08-26 09:30:00 51°16.864 2°43.183 14.5 285 17.3 102090 87
2008-08-26 09:30:05 51°16.865 2°43.158 13.1 324 17.3 102090 87
2008-08-26 09:30:10 51°16.866 2°43.133 14.1 278 17.3 102070 87
2008-08-26 09:30:15 51°16.867 2°43.108 13.3 322 17.3 102070 87
2008-08-26 09:30:20 51°16.871 2°43.083 14 280 17.3 102080 87
2008-08-26 09:30:25 51°16.874 2°43.059 14 319 17.3 102080 87
2008-08-26 09:30:30 51°16.878 2°43.034 15.5 281 17.3 102080 87
2008-08-26 09:30:35 51°16.883 2°43.01 16.5 318 17.3 102080 87
2008-08-26 09:30:40 51°16.888 2°42.986 10.9 283 17.3 102080 87
2008-08-26 09:30:45 51°16.895 2°42.963 12.9 315 17.3 102080 87
2008-08-26 09:30:50 51°16.902 2°42.941 11.7 279 17.3 102070 87
2008-08-26 09:30:55 51°16.909 2°42.918 12.8 316 17.3 102070 87
2008-08-26 09:31:00 51°16.917 2°42.896 15.3 279 17.3 102070 87
2008-08-26 09:31:05 51°16.925 2°42.874 12.1 316 17.3 102070 87
2008-08-26 09:31:09 51°16.932 2°42.857 14.8 283 17.3 102060 87
2008-08-26 09:31:15 51°16.942 2°42.83 12.7 40 17.3 102060 87
2008-08-26 09:31:20 51°16.95 2°42.808 16.4 280 17.3 102070 87
2008-08-26 09:31:25 51°16.959 2°42.787 13.8 36 17.3 102070 87
2008-08-26 09:31:30 51°16.969 2°42.765 15.7 280 17.2 102060 87
2008-08-26 09:31:35 51°16.978 2°42.744 14.3 39 17.2 102060 87
2008-08-26 09:31:40 51°16.988 2°42.723 15.2 279 17.2 102060 87
2008-08-26 09:31:45 51°16.998 2°42.703 12.2 35 17.2 102060 87
2008-08-26 09:31:50 51°17.008 2°42.682 11.5 280 17.2 102060 87
2008-08-26 09:31:55 51°17.018 2°42.662 13.6 37 17.2 102060 87
2008-08-26 09:32:00 51°17.028 2°42.642 14.7 283 17.2 102060 86
2008-08-26 09:32:05 51°17.038 2°42.622 16.2 35 17.2 102060 86
2008-08-26 09:32:10 51°17.048 2°42.602 11.7 285 17.2 102060 86
2008-08-26 09:32:15 51°17.058 2°42.581 14.9 32 17.2 102060 86
2008-08-26 09:32:20 51°17.068 2°42.561 15.4 281 17.2 102060 87
2008-08-26 09:32:25 51°17.075 2°42.538 11.8 316 17.2 102060 87
2008-08-26 09:32:30 51°17.084 2°42.517 13.3 279 17.2 102060 87
2008-08-26 09:32:35 51°17.091 2°42.493 13.6 318 17.2 102060 87
2008-08-26 09:32:40 51°17.098 2°42.47 15.2 280 17.2 102070 87
2008-08-26 09:32:45 51°17.103 2°42.446 13.1 318 17.2 102060 87
2008-08-26 09:32:50 51°17.108 2°42.423 13.4 277 17.2 102060 87
2008-08-26 09:32:55 51°17.11 2°42.398 15.6 324 17.2 102070 87
2008-08-26 09:33:00 51°17.113 2°42.374 13.4 323 17.2 102070 87
2008-08-26 09:33:05 51°17.114 2°42.35 13.5 324 17.2 102070 87
2008-08-26 09:33:10 51°17.114 2°42.326 16.2 282 17.1 102060 87
2008-08-26 09:33:15 51°17.114 2°42.302 16 325 17.1 102060 87
2008-08-26 09:33:20 51°17.113 2°42.277 13.5 283 17.2 102070 87
2008-08-26 09:33:25 51°17.113 2°42.252 16.6 325 17.2 102070 87
2008-08-26 09:33:30 51°17.111 2°42.228 12.8 284 17.2 102070 87
2008-08-26 09:33:35 51°17.109 2°42.204 12.8 327 17.1 102070 87
2008-08-26 09:33:40 51°17.107 2°42.18 13.6 276 17.1 102070 87
2008-08-26 09:33:45 51°17.105 2°42.155 12.7 329 17.1 102070 87
2008-08-26 09:33:50 51°17.103 2°42.131 13.8 282 17.2 102070 87
2008-08-26 09:33:55 51°17.101 2°42.107 15.2 328 17.2 102070 87
2008-08-26 09:34:00 51°17.099 2°42.082 13.2 276 17.1 102070 88
2008-08-26 09:34:05 51°17.097 2°42.058 13 330 17.1 102070 88
2008-08-26 09:34:10 51°17.094 2°42.033 13.2 282 17.2 102080 88
2008-08-26 09:34:15 51°17.092 2°42.009 15.2 328 17.2 102080 88
2008-08-26 09:34:20 51°17.089 2°41.984 16.1 281 17.2 102080 88
2008-08-26 09:34:25 51°17.087 2°41.96 14.5 328 17.2 102080 88
2008-08-26 09:34:30 51°17.084 2°41.936 12.9 282 17.2 102080 88
2008-08-26 09:34:35 51°17.082 2°41.911 16.6 328 17.2 102080 88
2008-08-26 09:34:40 51°17.08 2°41.887 16.4 278 17.2 102090 88
2008-08-26 09:34:45 51°17.078 2°41.862 16.8 329 17.1 102090 88
2008-08-26 09:34:50 51°17.076 2°41.837 14.6 282 17.1 102090 88
2008-08-26 09:34:55 51°17.074 2°41.813 13.6 328 17.1 102090 88
2008-08-26 09:35:00 51°17.072 2°41.788 13.7 328 17.1 102090 88
2008-08-26 09:35:05 51°17.07 2°41.764 15 327 17.1 102080 88
2008-08-26 09:35:10 51°17.068 2°41.739 14.7 285 17.1 102080 88
2008-08-26 09:35:15 51°17.066 2°41.715 16.2 325 17.1 102080 88
2008-08-26 09:35:20 51°17.065 2°41.69 16.1 280 17.1 102080 88
2008-08-26 09:35:25 51°17.066 2°41.666 15.9 322 17.1 102080 88
2008-08-26 09:35:30 51°17.067 2°41.641 15.2 282 17.1 102080 88
2008-08-26 09:35:35 51°17.069 2°41.616 13.4 320 17.1 102070 88
2008-08-26 09:35:40 51°17.072 2°41.592 13 281 17.1 102070 88
2008-08-26 09:35:45 51°17.074 2°41.567 15.3 320 17.1 102070 88
2008-08-26 09:35:50 51°17.079 2°41.543 12.5 282 17.1 102070 88
2008-08-26 09:35:55 51°17.083 2°41.518 13.2 320 17.1 102070 88
2008-08-26 09:36:00 51°17.088 2°41.494 16.2 281 17.1 102070 88
2008-08-26 09:36:05 51°17.093 2°41.47 15 317 17.1 102070 88
2008-08-26 09:36:10 51°17.099 2°41.447 14.8 283 17 102070 87
2008-08-26 09:36:15 51°17.106 2°41.425 15.3 37 17.1 102070 87
2008-08-26 09:36:20 51°17.114 2°41.402 14 285 17.1 102070 87
2008-08-26 09:36:25 51°17.121 2°41.38 14.3 315 17.1 102070 87
2008-08-26 09:36:30 51°17.13 2°41.358 14.4 281 17 102070 87
2008-08-26 09:36:35 51°17.139 2°41.336 11.7 35 17 102070 87
2008-08-26 09:36:40 51°17.148 2°41.315 13.3 280 17 102070 87
2008-08-26 09:36:45 51°17.157 2°41.294 14.3 36 17 102070 88
2008-08-26 09:36:50 51°17.167 2°41.274 14.6 276 17 102070 88
2008-08-26 09:36:55 51°17.178 2°41.254 15.5 37 17 102070 88
2008-08-26 09:37:00 51°17.189 2°41.234 12.9 281 17.1 102080 88
2008-08-26 09:37:05 51°17.199 2°41.214 11.9 37 17.1 102080 88
2008-08-26 09:37:10 51°17.21 2°41.195 13.7 283 17 102070 88
2008-08-26 09:37:15 51°17.222 2°41.176 15.2 37 17 102070 88
2008-08-26 09:37:20 51°17.233 2°41.156 11.6 283 17 102070 87
2008-08-26 09:37:25 51°17.244 2°41.137 14.5 36 17 102070 87
2008-08-26 09:37:30 51°17.255 2°41.118 14.4 276 17 102070 87
2008-08-26 09:37:35 51°17.266 2°41.099 13.4 38 17 102080 87
2008-08-26 09:37:40 51°17.278 2°41.08 11.1 282 17 102080 87
2008-08-26 09:37:45 51°17.289 2°41.061 11.7 35 17 102080 87
2008-08-26 09:37:50 51°17.301 2°41.042 10.8 275 17 102070 87
2008-08-26 09:37:55 51°17.311 2°41.023 11 34 17 102070 87
2008-08-26 09:38:00 51°17.323 2°41.003 14.1 280 17 102070 87
2008-08-26 09:38:05 51°17.334 2°40.984 12.1 39 17 102070 87
2008-08-26 09:38:10 51°17.345 2°40.964 14.6 285 17 102070 87
2008-08-26 09:38:15 51°17.357 2°40.945 14 32 17.1 102080 87
2008-08-26 09:38:20 51°17.368 2°40.926 12.1 284 17.1 102080 87
2008-08-26 09:38:25 51°17.379 2°40.906 11 32 17.1 102080 87
2008-08-26 09:38:30 51°17.391 2°40.887 15.2 283 17 102080 87
2008-08-26 09:38:35 51°17.402 2°40.868 12.1 39 17 102080 87
2008-08-26 09:38:40 51°17.414 2°40.848 11.6 281 17 102070 87
2008-08-26 09:38:45 51°17.425 2°40.83 11.6 37 17 102060 87
2008-08-26 09:38:50 51°17.437 2°40.811 11 285 17 102060 87
2008-08-26 09:38:55 51°17.449 2°40.792 13 36 17 102060 87
2008-08-26 09:39:00 51°17.461 2°40.773 11.5 281 17 102080 87
2008-08-26 09:39:05 51°17.473 2°40.754 13.9 233 17 102070 86
2008-08-26 09:39:10 51°17.485 2°40.735 10.9 278 17 102070 86
2008-08-26 09:39:15 51°17.496 2°40.716 12.4 38 17 102070 86
2008-08-26 09:39:20 51°17.508 2°40.697 12.7 282 17 102080 86
2008-08-26 09:39:25 51°17.518 2°40.677 11 40 17 102070 86
2008-08-26 09:39:30 51°17.53 2°40.658 12.3 281 17 102070 86
2008-08-26 09:39:35 51°17.541 2°40.638 11.7 231 17 102080 87
2008-08-26 09:39:40 51°17.553 2°40.62 14.6 280 17 102080 87
2008-08-26 09:39:45 51°17.564 2°40.601 15.1 37 17.1 102070 88
2008-08-26 09:39:50 51°17.575 2°40.581 11.5 280 17.1 102070 88
2008-08-26 09:39:55 51°17.586 2°40.563 13.3 33 17.1 102070 88
2008-08-26 09:40:00 51°17.597 2°40.543 13.6 282 17.1 102080 87
2008-08-26 09:40:05 51°17.608 2°40.524 13.5 33 17.1 102080 87
2008-08-26 09:40:10 51°17.619 2°40.504 12.6 281 17.1 102070 87
2008-08-26 09:40:15 51°17.631 2°40.485 11.8 40 17.1 102080 87
2008-08-26 09:40:20 51°17.642 2°40.466 15.1 277 17.1 102080 87
2008-08-26 09:40:25 51°17.653 2°40.446 13 39 17.1 102080 87
2008-08-26 09:40:30 51°17.664 2°40.427 13.1 285 17 102080 87
2008-08-26 09:40:35 51°17.676 2°40.408 14.6 36 17 102080 87
2008-08-26 09:40:40 51°17.687 2°40.389 14.5 283 17.1 102070 87
2008-08-26 09:40:45 51°17.698 2°40.37 11.8 32 17.1 102070 87
2008-08-26 09:40:50 51°17.71 2°40.351 13.1 279 17.1 102070 87
2008-08-26 09:40:55 51°17.721 2°40.332 11.4 231 17 102070 87
2008-08-26 09:41:00 51°17.732 2°40.313 12.3 281 17 102070 87
2008-08-26 09:41:05 51°17.744 2°40.294 12.2 231 17.1 102060 87
2008-08-26 09:41:10 51°17.755 2°40.274 14.5 280 17.1 102060 87
2008-08-26 09:41:15 51°17.766 2°40.255 12 38 17.1 102060 87
2008-08-26 09:41:20 51°17.777 2°40.236 11.9 276 17.1 102080 87
2008-08-26 09:41:25 51°17.788 2°40.217 12.3 36 17.1 102070 87
2008-08-26 09:41:30 51°17.799 2°40.197 12.2 278 17.1 102070 87
2008-08-26 09:41:35 51°17.81 2°40.178 12.1 231 17.1 102070 87
2008-08-26 09:41:40 51°17.821 2°40.158 12.4 280 17.1 102080 87
2008-08-26 09:41:45 51°17.833 2°40.139 12.1 37 17.1 102060 87
2008-08-26 09:41:50 51°17.844 2°40.12 11.4 280 17.1 102060 87
2008-08-26 09:41:55 51°17.855 2°40.101 14 39 17.1 102060 87
2008-08-26 09:42:00 51°17.867 2°40.082 14.6 283 17.1 102060 87
2008-08-26 09:42:05 51°17.878 2°40.063 12 38 17.1 102070 87
2008-08-26 09:42:10 51°17.89 2°40.045 13.8 281 17.1 102070 87
2008-08-26 09:42:15 51°17.902 2°40.026 14.4 35 17.1 102070 88
2008-08-26 09:42:20 51°17.913 2°40.007 11.9 283 17.1 102070 88
2008-08-26 09:42:25 51°17.925 2°39.988 12 38 17.1 102070 88
2008-08-26 09:42:30 51°17.937 2°39.97 12.5 281 17.1 102070 88
2008-08-26 09:42:35 51°17.949 2°39.951 13.1 38 17.1 102070 88
2008-08-26 09:42:40 51°17.961 2°39.933 13.3 279 17.2 102070 88
2008-08-26 09:42:45 51°17.973 2°39.914 14.9 35 17.2 102070 88
2008-08-26 09:42:50 51°17.985 2°39.896 13.9 281 17.2 102070 88
2008-08-26 09:42:55 51°17.997 2°39.878 13.3 35 17.2 102070 88
2008-08-26 09:43:00 51°18.008 2°39.86 15.1 279 17.2 102070 88
2008-08-26 09:43:05 51°18.02 2°39.841 12.9 40 17.1 102070 88
2008-08-26 09:43:10 51°18.031 2°39.823 13.3 281 17.1 102070 88
2008-08-26 09:43:15 51°18.043 2°39.805 14.4 35 17.1 102070 88
2008-08-26 09:43:20 51°18.056 2°39.787 13 277 17.1 102070 88
2008-08-26 09:43:25 51°18.067 2°39.769 13.2 41 17.1 102070 88
2008-08-26 09:43:30 51°18.08 2°39.752 15.4 279 17.1 102070 88
2008-08-26 09:43:35 51°18.092 2°39.733 13.1 40 17.1 102070 88
2008-08-26 09:43:40 51°18.104 2°39.716 15.1 284 17.1 102070 88
2008-08-26 09:43:45 51°18.116 2°39.697 13.5 35 17.1 102060 88
2008-08-26 09:43:50 51°18.128 2°39.679 14 283 17.1 102060 88
2008-08-26 09:43:55 51°18.14 2°39.66 12.6 32 17.1 102060 88
2008-08-26 09:44:00 51°18.152 2°39.641 13.9 285 17.1 102070 88
2008-08-26 09:44:05 51°18.164 2°39.623 13.4 38 17.1 102060 87
2008-08-26 09:44:10 51°18.175 2°39.604 14.7 278 17.1 102060 87
2008-08-26 09:44:15 51°18.187 2°39.585 15 40 17.1 102060 87
2008-08-26 09:44:20 51°18.199 2°39.567 14.4 281 17.1 102060 87
2008-08-26 09:44:25 51°18.212 2°39.548 12.8 37 17.1 102070 88
2008-08-26 09:44:30 51°18.224 2°39.53 12.7 282 17.1 102070 88
2008-08-26 09:44:35 51°18.236 2°39.512 13.3 37 17.1 102070 88
2008-08-26 09:44:40 51°18.248 2°39.493 11.9 285 17.1 102070 88
2008-08-26 09:44:45 51°18.26 2°39.474 13.4 32 17.1 102070 88
2008-08-26 09:44:50 51°18.272 2°39.456 12.8 281 17.1 102070 88
2008-08-26 09:44:55 51°18.284 2°39.437 14.2 36 17.1 102070 88
2008-08-26 09:45:00 51°18.296 2°39.419 14.7 279 17.1 102070 88
2008-08-26 09:45:05 51°18.308 2°39.4 13.8 35 17.1 102070 88
2008-08-26 09:45:10 51°18.32 2°39.382 13.1 283 17.1 102080 88
2008-08-26 09:45:15 51°18.332 2°39.363 12.4 35 17.1 102070 88
2008-08-26 09:45:20 51°18.344 2°39.345 14.4 280 17.1 102070 88
2008-08-26 09:45:25 51°18.356 2°39.326 14.7 37 17.1 102080 89
2008-08-26 09:45:30 51°18.368 2°39.308 13.4 277 17.1 102080 89
2008-08-26 09:45:35 51°18.38 2°39.29 14.4 34 17.1 102080 89
2008-08-26 09:45:40 51°18.392 2°39.271 14.1 280 17.1 102070 89
2008-08-26 09:45:45 51°18.404 2°39.253 13.5 35 17.1 102070 89
2008-08-26 09:45:50 51°18.417 2°39.235 15.5 285 17.1 102080 89
2008-08-26 09:45:55 51°18.43 2°39.218 15.5 32 17.1 102080 89
2008-08-26 09:46:00 51°18.442 2°39.2 14.9 282 17.1 102070 89
2008-08-26 09:46:05 51°18.455 2°39.183 13.1 36 17.1 102080 89
2008-08-26 09:46:10 51°18.468 2°39.165 13.4 276 17.1 102080 89
2008-08-26 09:46:15 51°18.481 2°39.147 14.4 39 17.1 102070 89
2008-08-26 09:46:21 51°18.496 2°39.126 13.5 285 17.1 102070 89
2008-08-26 09:46:25 51°18.506 2°39.112 14.7 38 17.1 102070 89
2008-08-26 09:46:30 51°18.518 2°39.094 14.1 284 17.1 102060 89
2008-08-26 09:46:35 51°18.531 2°39.075 14 34 17.1 102060 89
2008-08-26 09:46:40 51°18.543 2°39.057 13.8 283 17.1 102070 89
2008-08-26 09:46:45 51°18.556 2°39.039 13.1 34 17.1 102070 89
2008-08-26 09:46:50 51°18.568 2°39.021 13.1 281 17.1 102070 89
2008-08-26 09:46:55 51°18.581 2°39.003 12.8 39 17.1 102080 89
2008-08-26 09:47:00 51°18.593 2°38.985 13.9 281 17.1 102080 89
2008-08-26 09:47:05 51°18.605 2°38.966 12.9 38 17.1 102080 89
2008-08-26 09:47:10 51°18.617 2°38.947 12.5 280 17.1 102070 89
2008-08-26 09:47:15 51°18.629 2°38.929 12.8 38 17.1 102070 89
2008-08-26 09:47:20 51°18.641 2°38.91 13.9 281 17 102070 89
2008-08-26 09:47:25 51°18.653 2°38.891 14.8 37 17 102070 89
2008-08-26 09:47:30 51°18.665 2°38.872 12.3 279 17 102070 89
2008-08-26 09:47:35 51°18.676 2°38.853 12.8 38 17 102070 89
2008-08-26 09:47:40 51°18.688 2°38.834 12.5 280 17 102070 89
2008-08-26 09:47:45 51°18.699 2°38.815 12.4 40 17 102070 89
2008-08-26 09:47:50 51°18.711 2°38.796 13.7 280 17 102070 89
2008-08-26 09:47:55 51°18.723 2°38.777 14.3 40 17 102070 89
2008-08-26 09:48:00 51°18.734 2°38.758 12.3 280 17 102080 89
2008-08-26 09:48:05 51°18.745 2°38.738 13.7 36 17 102070 89
2008-08-26 09:48:10 51°18.757 2°38.72 12.9 280 17 102070 89
2008-08-26 09:48:15 51°18.769 2°38.701 12.6 37 17 102070 89
2008-08-26 09:48:20 51°18.781 2°38.683 13.9 281 17 102070 89
2008-08-26 09:48:25 51°18.792 2°38.664 13.2 37 17 102070 89
2008-08-26 09:48:30 51°18.804 2°38.645 12.7 280 17 102070 89
2008-08-26 09:48:35 51°18.816 2°38.626 13.5 39 17 102070 89
2008-08-26 09:48:40 51°18.827 2°38.607 12.2 283 17 102060 89
2008-08-26 09:48:45 51°18.839 2°38.588 12.1 35 17 102070 89
2008-08-26 09:48:50 51°18.85 2°38.569 12.4 285 17 102070 89
2008-08-26 09:48:55 51°18.861 2°38.549 12.9 32 17 102070 89
2008-08-26 09:49:00 51°18.873 2°38.53 15.2 21 17 102070 89
2008-08-26 09:49:05 51°18.884 2°38.511 14.1 37 17 102070 89
2008-08-26 09:49:10 51°18.896 2°38.492 15.1 280 17 102070 89
2008-08-26 09:49:15 51°18.907 2°38.473 13.1 37 17 102070 89
2008-08-26 09:49:20 51°18.918 2°38.454 12.4 279 17 102070 89
2008-08-26 09:49:25 51°18.93 2°38.435 15.2 38 17 102070 89
2008-08-26 09:49:30 51°18.942 2°38.417 14.7 283 17 102070 89
2008-08-26 09:49:35 51°18.954 2°38.398 12.6 34 17 102070 90
2008-08-26 09:49:40 51°18.965 2°38.379 13.5 281 17 102070 90
2008-08-26 09:49:45 51°18.977 2°38.36 14.2 35 17 102080 90
2008-08-26 09:49:50 51°18.989 2°38.341 12.7 281 17 102080 90
2008-08-26 09:49:55 51°19 2°38.322 12.9 38 17 102080 90
2008-08-26 09:50:00 51°19.012 2°38.303 14.6 280 17 102070 89
2008-08-26 09:50:05 51°19.023 2°38.283 14.9 37 17 102080 90
2008-08-26 09:50:10 51°19.034 2°38.264 14.9 282 17 102080 90
2008-08-26 09:50:15 51°19.046 2°38.245 14.3 37 16.9 102070 89
2008-08-26 09:50:20 51°19.058 2°38.226 13.5 277 16.9 102070 89
2008-08-26 09:50:25 51°19.069 2°38.208 14.1 37 16.9 102070 89
2008-08-26 09:50:30 51°19.081 2°38.189 13.4 279 16.9 102080 89
2008-08-26 09:50:35 51°19.092 2°38.17 14.8 37 16.9 102080 89
2008-08-26 09:50:40 51°19.105 2°38.151 12.4 280 17 102070 89
2008-08-26 09:50:45 51°19.116 2°38.133 14 36 16.9 102070 89
2008-08-26 09:50:50 51°19.129 2°38.115 11.9 285 16.9 102070 89
2008-08-26 09:50:55 51°19.141 2°38.097 11.2 37 16.9 102070 89
2008-08-26 09:51:00 51°19.154 2°38.079 11.2 23 16.9 102070 89
2008-08-26 09:51:05 51°19.166 2°38.061 13.6 38 16.9 102070 89
2008-08-26 09:51:10 51°19.179 2°38.045 13.2 280 16.9 102070 89
2008-08-26 09:51:15 51°19.192 2°38.028 14.3 232 16.9 102070 89
2008-08-26 09:51:20 51°19.205 2°38.01 13.8 281 16.9 102070 89
2008-08-26 09:51:25 51°19.218 2°37.993 12.6 231 16.9 102070 89
2008-08-26 09:51:30 51°19.23 2°37.976 12.5 277 17 102070 90
2008-08-26 09:51:35 51°19.243 2°37.959 12.5 37 17 102070 90
2008-08-26 09:51:40 51°19.256 2°37.941 14.3 282 17 102070 90
2008-08-26 09:51:45 51°19.269 2°37.924 11.2 38 16.9 102070 90
2008-08-26 09:51:50 51°19.282 2°37.908 13.9 282 16.9 102070 90
2008-08-26 09:51:55 51°19.295 2°37.89 12.5 37 16.9 102070 90
2008-08-26 09:52:00 51°19.308 2°37.873 13.7 281 16.9 102080 90
2008-08-26 09:52:05 51°19.32 2°37.855 11.2 37 16.9 102080 90
2008-08-26 09:52:10 51°19.333 2°37.838 14.9 280 17 102070 90
2008-08-26 09:52:15 51°19.345 2°37.821 13.3 38 17 102070 90
2008-08-26 09:52:20 51°19.358 2°37.804 12.9 284 17 102070 90
2008-08-26 09:52:25 51°19.371 2°37.786 14.4 38 17 102070 90
2008-08-26 09:52:30 51°19.383 2°37.768 13.4 280 17 102070 90
2008-08-26 09:52:35 51°19.395 2°37.75 14.4 27 17 102070 90
2008-08-26 09:52:41 51°19.409 2°37.728 15.1 284 17 102070 90
2008-08-26 09:52:45 51°19.419 2°37.713 11.9 25 17 102070 90
2008-08-26 09:52:50 51°19.431 2°37.695 12.3 281 17 102070 90
2008-08-26 09:52:55 51°19.443 2°37.677 13.6 24 16.9 102070 89
2008-08-26 09:53:00 51°19.454 2°37.658 15 283 16.9 102070 89
2008-08-26 09:53:05 51°19.466 2°37.64 14.4 29 16.9 102070 89
2008-08-26 09:53:10 51°19.478 2°37.621 12.8 277 16.9 102070 89
2008-08-26 09:53:15 51°19.489 2°37.602 14.4 22 16.9 102080 90
2008-08-26 09:53:20 51°19.502 2°37.585 14.1 279 16.9 102080 90
2008-08-26 09:53:25 51°19.513 2°37.566 14.2 27 16.9 102070 89
2008-08-26 09:53:30 51°19.525 2°37.548 11.7 281 16.9 102070 89
2008-08-26 09:53:35 51°19.537 2°37.53 11.1 26 17 102080 90
2008-08-26 09:53:40 51°19.55 2°37.512 11.6 282 17 102080 90
2008-08-26 09:53:45 51°19.562 2°37.494 12.2 23 17 102080 90
2008-08-26 09:53:50 51°19.575 2°37.476 11.3 279 17 102080 90
2008-08-26 09:53:55 51°19.587 2°37.459 12.5 22 17 102080 90
2008-08-26 09:54:00 51°19.6 2°37.442 11.9 281 17 102080 90
2008-08-26 09:54:05 51°19.613 2°37.425 12.2 25 17 102070 90
2008-08-26 09:54:09 51°19.623 2°37.411 14.6 277 17 102070 90
2008-08-26 09:54:15 51°19.638 2°37.39 11.7 25 17 102080 91
2008-08-26 09:54:20 51°19.651 2°37.373 10.4 282 17 102080 91
2008-08-26 09:54:25 51°19.663 2°37.356 10.6 25 17 102070 90
2008-08-26 09:54:30 51°19.676 2°37.339 11.5 281 17 102070 90
2008-08-26 09:54:35 51°19.689 2°37.321 10.8 20 16.9 102070 90
2008-08-26 09:54:41 51°19.704 2°37.301 11.5 281 16.9 102070 90
2008-08-26 09:54:45 51°19.715 2°37.287 11.2 21 17 102080 90
2008-08-26 09:54:50 51°19.728 2°37.27 13.4 279 17 102080 90
2008-08-26 09:54:55 51°19.74 2°37.253 11.2 29 17 102070 90
2008-08-26 09:55:00 51°19.753 2°37.236 15.2 283 17 102070 90
2008-08-26 09:55:05 51°19.766 2°37.219 14.2 22 17 102070 90
2008-08-26 09:55:10 51°19.778 2°37.203 11.5 280 17 102070 90
2008-08-26 09:55:15 51°19.79 2°37.186 11 25 17 102080 90
2008-08-26 09:55:20 51°19.803 2°37.17 11.2 277 17 102080 90
2008-08-26 09:55:25 51°19.815 2°37.155 13.1 23 17 102080 90
2008-08-26 09:55:30 51°19.825 2°37.14 13.1 280 17 102080 90
2008-08-26 09:55:35 51°19.836 2°37.127 11.7 24 16.9 102080 90
2008-08-26 09:55:40 51°19.845 2°37.115 9.3 281 16.9 102080 90
2008-08-26 09:55:45 51°19.853 2°37.103 11.6 23 16.9 102070 90
2008-08-26 09:55:50 51°19.862 2°37.092 12.3 278 16.9 102070 90
2008-08-26 09:55:55 51°19.869 2°37.082 10.3 27 16.9 102090 90
2008-08-26 09:56:00 51°19.876 2°37.073 10.3 282 16.9 102090 90
2008-08-26 09:56:05 51°19.884 2°37.065 10.1 26 17 102080 91
2008-08-26 09:56:10 51°19.891 2°37.057 11.5 282 17 102080 91
2008-08-26 09:56:15 51°19.897 2°37.049 9.4 27 16.9 102080 91
2008-08-26 09:56:20 51°19.903 2°37.041 10.1 283 16.9 102080 91
2008-08-26 09:56:25 51°19.909 2°37.034 9.1 26 16.9 102090 90
2008-08-26 09:56:30 51°19.914 2°37.027 10.5 286 16.9 102090 90
2008-08-26 09:56:35 51°19.92 2°37.02 9.6 22 16.9 102090 90
2008-08-26 09:56:40 51°19.925 2°37.014 12.3 285 16.9 102090 90
2008-08-26 09:56:45 51°19.929 2°37.008 11.4 26 16.9 102090 90
2008-08-26 09:56:49 51°19.933 2°37.003 9.8 284 16.9 102090 90
2008-08-26 09:56:55 51°19.938 2°36.995 10.6 25 16.9 102090 90
2008-08-26 09:57:01 51°19.944 2°36.988 12.2 277 16.9 102090 90
2008-08-26 09:57:05 51°19.947 2°36.983 9.6 26 16.9 102090 90
2008-08-26 09:57:10 51°19.951 2°36.977 11.8 284 16.9 102090 90
2008-08-26 09:57:15 51°19.956 2°36.971 9.8 28 16.9 102090 90
2008-08-26 09:57:20 51°19.96 2°36.965 10.3 280 16.9 102090 90
2008-08-26 09:57:25 51°19.965 2°36.959 8.9 27 16.9 102090 90
2008-08-26 09:57:29 51°19.969 2°36.954 11.1 284 16.9 102090 90
2008-08-26 09:57:35 51°19.975 2°36.947 11 25 16.9 102090 90
2008-08-26 09:57:40 51°19.98 2°36.941 11.4 280 16.9 102090 90
2008-08-26 09:57:45 51°19.985 2°36.936 8.7 28 16.9 102080 90
2008-08-26 09:57:50 51°19.989 2°36.931 8.8 278 16.9 102080 90
2008-08-26 09:57:55 51°19.994 2°36.926 9.8 21 16.9 102090 90
2008-08-26 09:58:00 51°19.998 2°36.922 7.3 280 16.9 102090 90
2008-08-26 09:58:05 51°20.002 2°36.918 8.9 27 16.9 102090 90
2008-08-26 09:58:09 51°20.005 2°36.915 10.5 285 16.9 102090 90
2008-08-26 09:58:15 51°20.01 2°36.911 8.7 21 17 102090 91
2008-08-26 09:58:20 51°20.013 2°36.908 10.7 282 17 102090 91
2008-08-26 09:58:25 51°20.017 2°36.905 7.8 25 17 102100 91
2008-08-26 09:58:30 51°20.02 2°36.903 8.1 280 17 102100 91
2008-08-26 09:58:35 51°20.023 2°36.901 10.5 26 17 102090 91
2008-08-26 09:58:41 51°20.027 2°36.899 9.7 282 17 102090 91
2008-08-26 09:58:45 51°20.029 2°36.898 7.7 26 17 102080 91
2008-08-26 09:58:50 51°20.032 2°36.897 7.7 284 17 102080 91
2008-08-26 09:58:55 51°20.035 2°36.896 9.1 23 17 102090 91
2008-08-26 09:59:00 51°20.038 2°36.895 9.4 282 17 102090 91
2008-08-26 09:59:05 51°20.041 2°36.895 9.8 24 17 102090 91
2008-08-26 09:59:10 51°20.044 2°36.894 9.4 284 17 102090 91
2008-08-26 09:59:15 51°20.047 2°36.893 9.3 30 17 102100 91
2008-08-26 09:59:21 51°20.05 2°36.892 7.8 277 17 102100 91
2008-08-26 09:59:25 51°20.052 2°36.892 7.8 29 17 102100 91
2008-08-26 09:59:30 51°20.055 2°36.891 8 283 17 102100 91
2008-08-26 09:59:35 51°20.057 2°36.891 8.9 24 17 102090 91
2008-08-26 09:59:40 51°20.059 2°36.891 10.4 285 17 102090 91
2008-08-26 09:59:45 51°20.062 2°36.891 9.7 25 17.1 102100 91
2008-08-26 09:59:50 51°20.064 2°36.891 8.8 278 17.1 102100 91
2008-08-26 09:59:55 51°20.066 2°36.892 10.8 29 17 102090 91
2008-08-26 10:00:00 51°20.068 2°36.892 8.5 279 17 102090 91